This is the latest recevied weather packets stored in our database for station/object WC4PEM-7. If no packets are shown the sender has not sent any weather packets the latest 10 day(s).
| Time | Temp. | Humidity | Pressure | Rain* | Wind** | Luminosity | Snow |
|---|---|---|---|---|---|---|---|
| 1777570005 | 30.56° C | 50% | 1011.7 hPa | 0 mm | - | - | - |
| 1777569835 | 30.56° C | 50% | 1011.7 hPa | 0 mm | - | - | - |
| 1777569689 | 30.56° C | 50% | 1011.8 hPa | 0 mm | - | - | - |
| 1777569535 | 30.56° C | 50% | 1011.8 hPa | 0 mm | - | - | - |
| 1777569465 | 30.56° C | 53% | 1011.9 hPa | 0 mm | - | - | - |
| 1777569235 | 30.56° C | 53% | 1011.9 hPa | 0 mm | - | - | - |
| 1777568935 | 30.56° C | 54% | 1011.6 hPa | 0 mm | - | - | - |
| 1777568635 | 30.56° C | 55% | 1011.6 hPa | 0 mm | - | - | - |
| 1777568335 | 30° C | 56% | 1011.6 hPa | 0 mm | - | - | - |
| 1777568035 | 30° C | 57% | 1011.9 hPa | 0 mm | - | - | - |
| 1777567888 | 30° C | 56% | 1011.9 hPa | 0 mm | - | - | - |
| 1777567735 | 30° C | 56% | 1011.9 hPa | 0 mm | - | - | - |
| 1777567522 | 28.89° C | 62% | 1012 hPa | 0 mm | - | - | - |
| 1777567435 | 30° C | 56% | 1011.8 hPa | 0 mm | - | - | - |
| 1777567135 | 29.44° C | 59% | 1011.9 hPa | 0 mm | - | - | - |
| 1777566835 | 28.89° C | 62% | 1012 hPa | 0 mm | - | - | - |
| 1777566535 | 29.44° C | 59% | 1012.2 hPa | 0 mm | - | - | - |
| 1777566235 | 29.44° C | 59% | 1012.2 hPa | 0 mm | - | - | - |
| 1777566137 | 29.44° C | 57% | 1012.4 hPa | 0 mm | - | - | - |
| 1777565935 | 29.44° C | 57% | 1012.4 hPa | 0 mm | - | - | - |
| 1777565665 | 28.89° C | 62% | 1012.6 hPa | 0 mm | - | - | - |
| 1777565635 | 29.44° C | 58% | 1012.4 hPa | 0 mm | - | - | - |
| 1777565335 | 29.44° C | 59% | 1012.5 hPa | 0 mm | - | - | - |
| 1777565035 | 29.44° C | 60% | 1012.6 hPa | 0 mm | - | - | - |
| 1777564735 | 28.89° C | 62% | 1012.6 hPa | 0 mm | - | - | - |
* Rain latest hour (hover to see other rain measurements)
** Current wind speed in m/s (hover to see current wind gust speed)